Location: Hylvaty SDH
(49.9612°N, 16.4057°E)
Time: 20:18:46
(UTC+02:00)

Transit 4A - Pass Details

Date: 17 August 2020
Orbit: 862 x 982 km, 66.8° (Epoch: 28 September)

Event Time Altitude Azimuth Distance (km) Brightness Sun altitude
Rises 13:56:14 0° 313° (NW) 3,614 10.9 51.4°
Reaches altitude 10° 13:59:35 10° 331° (NNW) 2,690 10.2 51.1°
Maximum altitude 14:03:58 19° 15° (NNE) 2,120 9.6 50.8°
Drops below altitude 10° 14:08:25 10° 60° (ENE) 2,728 10.1 50.5°
Sets 14:11:51 0° 77° (ENE) 3,684 10.8 50.3°
